Weather Roundup
Issued by NWS Chicago, IL

Home | Current Version | Previous Version | Graphics & Text | Print | Product List | Glossary On
Versions: 1 2 3 4 5 6 7 8 9 10 11 12 13 14 15 16 17 18 19 20 21 22 23 24 25 26 27 28 29 30 31 32 33 34 35 36 37 38 39 40 41 42 43 44 45 46 47 48 49 50
000
NZUS59 KLOT 192210
HRRLOT

CHICAGO AREA WEATHER ROUNDUP
NATIONAL WEATHER SERVICE CHICAGO/ROMEOVILLE IL
400 PM CST FRI DEC 19 2014

NOTE: "FAIR" INDICATES FEW OR NO CLOUDS BELOW 12,000 FEET WITH NO
SIGNIFICANT WEATHER AND/OR OBSTRUCTIONS TO VISIBILITY.

* THESE STATIONS ARE NOT UNDER NWS QUALITY CONTROL. THEY ALSO MAY NOT
  REPORT WEATHER SUCH AS PRECIPITATION OR FOG.

ILZ005-006-012>014-019>023-192300-
NORTHEAST ILLINOIS

CITY           SKY/WX    TMP DP  RH WIND       PRES   REMARKS
OHARE          CLOUDY    31  22  69 S3        30.30R
MIDWAY         CLOUDY    33  23  66 SW5       30.31R WCI  29
AURORA         CLOUDY    32  23  69 W5        30.31R WCI  27
LANSING*       CLOUDY    32  25  76 SW5       30.31R WCI  27
JOLIET*        CLOUDY    32  24  71 SW3       30.33R
WAUKEGAN       CLOUDY    29  20  69 VRB5      30.29R WCI  24
DUPAGE AIRPORT CLOUDY    31  22  69 W5        30.30R WCI  26
WHEELING       CLOUDY    30  21  69 CALM      30.32R
KANKAKEE*      CLOUDY    32  26  80 S5        30.33R WCI  27
MORRIS*        CLOUDY    33  26  76 SW9       30.31R WCI  25
LEWIS AIRPORT* CLOUDY    32  24  71 S3        30.31R
NORTHERLY IS     N/A     33  22  64 S3          N/A
$$

WIZ051-052-058>065-066-070>072-192300-
SOUTHEAST WISCONSIN

CITY           SKY/WX    TMP DP  RH WIND       PRES   REMARKS
MILWAUKEE      MOCLDY    31  18  58 SW5       30.28R WCI  26
KENOSHA*       CLOUDY    29  21  72 SW6       30.29R WCI  23
RACINE*        CLOUDY    30  19  63 W5        30.30R WCI  25
BURLINGTON     CLOUDY    27  19  71 SW6       30.30R WCI  20
WAUKESHA       CLOUDY    28  18  64 MISG      30.27R
WEST BEND      CLOUDY    30  21  69 CALM      30.26R
$$

INZ001>003-010>013-019-020-192300-
NORTHWEST INDIANA

CITY           SKY/WX    TMP DP  RH WIND       PRES   REMARKS
GARY*          CLOUDY    34  19  55 W5        30.31R WCI  30
MICHIGAN CITY* NOT AVBL
RENSSELAER*    NOT AVBL
VALPARAISO     CLOUDY    31  24  75 W7        30.30R WCI  24
$$

LMZ740>746-192300-
SOUTHERN LAKE MICHIGAN

STATION/POSITION TIME  SKY/WX   TEMP WIND        PRES    VSBY
                                AIR  DIR/SP/G
                 (UTC)          (F)  (DEG/KT/KT) (MB)    (MI)
HARRISON CRIB    2200            31  280/  1/  2   N/A
BURNHAM HARBOR   2200            33  190/  7       N/A
CALUMET HARBOR   2200            33  210/  5/  8 1024.8R
BURNS HARBOR     NOT AVBL
MICHIGAN CITY    NOT AVBL
$$

ABBREVIATIONS USED IN REMARKS
   TC - TEMPERATURE IN CELSIUS
  WCI - WIND CHILL INDEX
   HX - HEAT INDEX
  VSB - VISIBILITY
$$


USA.gov is the U.S. government's official web portal to all federal, state and local government web resources and services.